Regional Weather Roundup
Issued by NWS Newport/Morehead, NC

Current Version | Previous Version | Graphics & Text | Print | Product List | Glossary Off
Versions: 1 2 3 4 5 6 7 8 9 10 11 12 13 14 15 16 17 18 19 20 21 22 23 24 25 26 27 28 29 30 31 32 33 34 35 36 37 38 39 40 41 42 43 44 45 46 47 48 49 50

700
ASUS42 KMHX 270313
RWRMHX
WEATHER ROUNDUP FOR EASTERN NORTH CAROLINA
NATIONAL WEATHER SERVICE NEWPORT/MOREHEAD CITY NC
1100 PM EDT TUE JUL 26 2016

NOTE: "FAIR" INDICATES FEW OR NO CLOUDS BELOW 12,000 FEET
WITH NO SIGNIFICANT WEATHER AND/OR OBSTRUCTIONS TO VISIBILITY

NCZ015>017-031-032-045>047-102-103-270400-
NORTH COAST

CITY           SKY/WX    TMP DP  RH WIND       PRES   REMARKS
EDENTON        CLOUDY    83  83 100 S5        29.96S
ELIZABETH CITY CLOUDY    77  75  93 W3        29.96R
KITTY HAWK     CLOUDY    80  76  89 CALM      29.94S
MANTEO           N/A     78  78 100 S6        29.95F

$$

NCZ045>047-081-094-103-104-270400-
CENTRAL COAST

CITY           SKY/WX    TMP DP  RH WIND       PRES   REMARKS
FRISCO         CLOUDY    83  76  79 SW12      29.96R

$$

NCZ095-097-098-100-101-270400-
SOUTHERN COAST

CITY           SKY/WX    TMP DP  RH WIND       PRES   REMARKS
BEAUFORT       PTCLDY    83  78  85 SW13      29.98R
CEDAR ISLAND   NOT AVBL
JACKSONVILLE   CLEAR     80  74  81 SW6       29.98S
PINEY ISLAND   NOT AVBL
WILMINGTON     CLEAR     81  76  84 SW9       30.00R


$$

NCZ011>013-027>030-043-044-078>080-089-090>093-098-270400-
COASTAL PLAIN

CITY           SKY/WX    TMP DP  RH WIND       PRES   REMARKS
AHOSKIE        CLOUDY    75  75  98 CALM      29.97R FOG
CLINTON        CLEAR     83  77  81 CALM      29.99R
ELIZABETHTOWN  CLEAR     82  74  78 S6        29.99S
GOLDSBORO      CLEAR     85  79  83 S6        29.96R
GREENVILLE     CLOUDY    86  79  79 SW9       29.98R
HAVELOCK       CLEAR     82  75  79 SW9       29.99R
KENANSVILLE    NOT AVBL
KINSTON        CLEAR     84  75  76 SW9       29.98R
NEW BERN       CLEAR     80  75  84 SW8       29.98S
RICHLANDS      CLEAR     80  75  84 S7        29.99S
ROCKY MOUNT    CLOUDY    82  77  84 SW5       29.96S
WASHINGTON     PTCLDY    83  76  78 SW9G16    29.97R
WHITEVILLE     CLEAR     81  75  82 S3        30.00S

$$

AMZ130-135-150-152-154-156-158-170-250-252-270-ANZ085-086-088-633-658-670-270400-
MARINE OBSERVATIONS

STATION/POSITION TIME  TEMP    WIND        PRES    WAVE   SWELL
                       AIR SEA DIR/SP/G            HT/PER HT/PER
                 (UTC) (F)     (DEG/KT/KT) (MB)    (FT/S) (FT/S)
CHESAPEAKE LIGHT NOT AVBL
64 E VA BEACH    0250   81 80   80/  4/  4 1013.5    3/ 6   3/ 6
DUCK             0200   80 67                N/A
2 E DUCK         0211      72                N/A     1/ 6
OREGON INLET     0200   84 86                N/A
13E OREGON INLT  0300      82                N/A     3/ 6   2/ 6
HATTERAS CG      0200   83 83                N/A
DIAMOND BUOY     0250   85 84  230/ 19/ 23 1014.2    4/ 6
CAPE LOOKOUT     0300   83     220/ 12/ 15 1015.1
BEAUFORT LAB     0200   83 84                N/A
30 SE NEW RVR IN 0208   84 85  230/ 16/ 21 1015.5
30 SE NEW RVR IN 0225      85                N/A     4/ 5
27 SE WRIGHTSVLE 0208   84 84  230/ 14/ 17 1016.0
5 SE WRIGHTSVLE  0208   81 80  230/ 10/ 14 1016.6
225 S CAPE HAT   0250   84 84  250/ 10/ 12 1018.0    2/ 7   2/ 7
41 SE CHARLESTON 0250   85 86  220/ 16/ 17 1016.6    3/ 4   2/ 8

$$




USA.gov is the U.S. government's official web portal to all federal, state and local government web resources and services.